Aérodrome :
LOGIN :

S'inscrire | Disclaimer

   EN    FR    IT 

 










Légende :    VFR   VFR Marginal   IFR   IFR Intensif   IFR Très Intensif
Visi : 
Plafond : 
>= 8 km
>= 3000ft
5 à 8 km
1000 à 3000 ft
1500m à 5 km
500 à 1000 ft
800 à 1500m
200 à 500 ft
< 800m
< 200 ft
Symboles :   Orages  Brouillard  Fortes neiges  Fortes précipitations  Vent > 20 kt
SIGMETs :   Divers  Orages  Givrage  Turbulence  Onde Orograph.  Cendres Volcan.







- Altitude de l'aérodrome : 138 ft
- Code IATA : RLG


ETNL - Rostock Laage

DERNIER METAR :
  • 220120Z 25009KT 9999 FEW040 09/07 Q1012 BLU+

METARs EXPIRÉS :
  • 220020Z 25009KT 9999 FEW050 09/07 Q1012 BLU+
  • 212320Z 24009KT 9999 FEW030 09/06 Q1013 BLU+

TAF TAF ETNL
Valide du 21 à 23h jusqu'au 22 à 11h UTC


212202Z 2123/2211 26010G20KT 9999 NSW FEW025 BKN100
TEMPO 2202/2211 25012G22KT 4000 SHRA BKN012 BKN025CB
PROB30 2202/2211 VRB15G25KT 2000 TSRA BKN010 BKN020CB BY ETGL
Pas de NOTAMs connus pour ce terrain.



MET'MAP, la Météo Aéronautique d'un coup d'oeil ! - Copyright ORBIFLY Décembre 2007 - Disclaimer

ORBIFLY MET'MAP TEAM :

Programmation & Développement : Alexandra Zaïnal
Conception & Développement : Baudouin d'Aumeries
Co-Programmation & Développement : Marc-Olivier Méhu
Soutien technique & logistique : Manuel Goepfert

Contact : metmap@orbifly.com




SOURCES & CREDITS :

   NOAA